SCP
5 5 5 5 4 3 2 2 2 2 2 1 1 1 1 1 0 0 0 0 0 0 0 0 0 0 0 0 0 0 0 0 0 0 0 0 0 0 0 0 0 0 0
6 5 5 5 4 3 2 2 2 2 2 1 1 1 1 1 1 0 0 0 0 0 0 0 0 0 0 0 0 0 0 0 0 0 0 0 0 0 0 0 0 0 0
5 5 5 5 5 3 2 1 1 1 1 1 2 2 1 1 1 1 1 0 0 0 0 0 0 0 0 0 0 0 0 0 0 0 0 0 0 0 0 0 0 0 0
4 4 4 5 5 4 3 2 1 1 1 1 2 2 2 2 2 1 1 0 0 0 0 0 0 0 0 0 0 0 0 0 0 0 0 0 0 0 0 0 0 0 0
2 2 3 5 5 5 4 3 2 1 1 1 2 2 2 2 1 1 1 0 0 0 0 0 0 0 0 0 0 0 0 0 0 0 0 0 0 0 0 0 0 0 0
2 2 3 4 6 6 5 3 2 2 1 2 2 2 1 1 1 1 1 0 0 0 0 0 0 0 0 0 0 0 0 0 0 0 0 0 0 0 0 0 0 0 0
2 2 3 4 6 6 5 4 3 2 2 2 2 2 1 1 1 1 0 0 0 0 0 0 0 0 0 0 0 0 0 0 0 0 0 0 0 0 0 0 0 0 0
1 2 2 4 5 5 4 3 2 2 2 2 2 2 1 1 1 1 0 0 0 0 0 0 0 0 0 0 0 0 0 0 0 0 0 0 0 0 0 0 0 0 0
1 1 2 2 3 2 2 2 2 2 2 2 2 2 1 1 1 1 0 0 0 0 0 0 0 0 0 0 0 0 0 0 0 0 0 0 0 0 0 0 0 0 0
1 1 1 1 1 1 1 1 1 2 2 2 2 1 1 1 1 1 1 1 0 0 0 0 0 0 0 0 0 0 0 0 0 0 0 0 0 0 0 0 0 0 0
0 1 1 1 1 1 1 1 1 1 2 2 2 2 1 1 1 1 1 1 1 0 0 0 0 0 0 0 0 0 0 0 0 0 0 0 0 0 0 0 0 0 0
0 0 1 1 1 1 1 1 1 1 1 2 2 2 2 1 1 1 1 1 0 0 0 0 0 0 0 0 0 0 0 0 0 0 0 0 0 0 0 0 0 0 0
0 0 1 1 1 1 1 1 1 1 1 1 2 2 2 2 1 1 1 1 0 0 0 0 0 0 0 0 0 0 0 0 0 0 0 0 0 0 0 0 0 0 0
0 0 1 1 1 1 1 1 1 1 1 2 2 2 2 2 1 1 1 1 0 0 0 0 0 0 0 0 0 0 0 0 0 0 0 0 0 0 0 0 0 0 0
0 0 1 1 1 1 1 1 1 1 1 2 2 2 2 2 1 1 1 0 0 0 0 0 0 0 0 0 0 0 0 0 0 0 0 0 0 0 0 0 0 0 0
0 0 0 1 1 1 1 1 1 1 2 2 2 2 1 1 1 1 1 0 0 0 0 0 0 0 0 0 0 0 0 0 0 0 0 0 0 0 0 0 0 0 0
1 1 1 1 1 1 2 2 2 2 2 2 2 2 1 1 1 1 0 0 0 0 0 0 0 0 0 0 0 0 0 0 0 0 0 0 0 0 0 0 0 0 0
1 1 1 1 1 1 2 2 3 3 2 2 2 2 1 1 1 0 0 0 0 0 0 0 0 0 0 0 0 0 0 0 0 0 0 0 0 0 0 0 0 0 0
1 1 1 1 1 1 1 3 3 3 3 2 2 2 1 1 0 0 0 0 0 0 0 0 0 0 0 0 0 0 0 0 0 0 0 0 0 0 0 0 0 0 0
0 1 1 1 1 1 1 2 3 3 3 2 2 1 1 0 0 0 0 0 0 0 0 0 0 0 0 0 0 0 0 0 0 0 0 0 0 0 0 0 0 0 0
0 0 0 1 1 1 1 2 2 2 2 2 1 1 0 0 0 0 0 0 0 0 0 0 0 0 0 0 0 0 0 0 0 0 0 0 0 0 0 0 0 0 0
0 0 0 1 1 1 1 1 1 1 1 1 1 0 0 0 0 0 0 0 0 0 0 0 0 0 0 0 0 0 0 0 0 0 0 0 0 0 0 0 0 0 0
0 0 0 1 1 1 1 1 1 0 0 0 0 0 0 0 0 0 0 0 0 0 0 1 1 1 0 0 0 0 0 0 0 0 0 0 0 0 0 0 0 0 0
0 0 0 0 1 1 1 1 1 1 0 0 0 0 0 0 0 0 0 0 0 0 1 1 1 1 1 1 0 0 0 0 0 0 0 0 0 0 0 0 0 0 0
0 0 0 0 0 0 1 1 1 1 1 0 0 0 0 0 0 0 0 0 0 0 0 1 1 1 1 1 0 0 0 0 0 0 0 0 0 0 0 0 0 0 0
0 0 0 0 0 0 1 1 1 1 1 1 1 1 1 0 0 0 0 0 0 0 0 0 1 1 1 0 0 0 0 0 0 0 0 0 0 0 0 0 0 0 0
Wind_Speed
8 7 8 9 9 8 8 8 8 7 7 5 5 4 3 3 2 2 4 5 5 5 4 4 3 3 3 2 3 2 3 2 1 2 2 3 3 3 2 2 1 1 0
7 8 9 9 10 10 9 8 9 8 7 5 4 4 4 3 2 2 3 4 5 5 5 5 3 3 3 3 2 2 2 2 2 2 2 2 3 3 4 3 2 2 1
11 10 10 10 10 10 9 9 9 9 8 7 5 5 4 3 2 2 2 3 5 5 5 5 4 3 3 3 2 2 3 3 2 2 3 3 2 1 2 3 3 3 2
9 9 10 10 11 10 9 9 9 9 8 8 8 9 6 5 4 3 3 3 4 5 5 5 5 4 3 3 2 2 2 3 2 2 2 2 2 3 1 2 3 3 4
9 10 11 11 10 10 9 9 9 8 8 8 9 8 6 4 4 4 5 4 3 4 5 5 5 4 3 3 3 3 3 2 2 2 2 3 3 2 2 1 2 3 3
9 9 9 8 8 9 9 9 9 8 8 9 9 9 9 8 8 6 5 4 2 2 4 5 4 4 3 3 3 3 4 3 3 2 2 2 2 2 2 2 1 1 2
9 10 10 10 9 10 10 10 10 9 9 9 9 9 10 10 10 8 7 6 4 3 3 4 4 4 4 4 4 4 3 3 4 3 2 2 2 2 2 3 1 1 2
9 10 11 10 10 11 10 10 10 9 9 9 8 8 9 7 6 7 6 6 5 4 5 5 5 5 5 5 4 3 3 3 3 4 3 2 2 1 2 3 3 1 1
9 10 10 11 11 11 11 11 11 10 10 9 8 8 8 8 7 7 6 5 4 5 6 6 6 5 5 5 4 3 3 4 3 3 3 2 2 2 1 2 2 3 1
9 9 10 10 10 10 9 9 10 10 9 10 9 8 8 8 8 7 7 6 6 6 7 6 6 5 5 5 4 3 3 4 3 2 3 3 2 2 2 2 1 2 2
10 10 9 9 9 9 9 9 9 8 8 9 8 9 8 7 8 7 8 7 6 7 7 7 6 6 5 5 4 4 4 4 3 3 3 3 2 2 2 2 2 1 2
10 9 9 9 9 9 9 9 9 9 9 9 8 9 8 8 8 8 7 7 7 7 7 7 7 6 6 6 6 5 5 5 5 4 3 3 2 2 2 2 2 2 2
9 9 9 9 10 10 10 9 9 9 9 9 9 9 8 9 9 8 7 7 7 7 7 7 7 7 6 6 6 5 5 5 5 5 5 4 4 3 2 2 2 2 2
10 10 10 10 10 10 10 10 10 9 10 10 10 10 9 9 9 8 8 8 8 8 7 7 7 7 7 6 6 6 5 5 4 4 5 5 5 5 4 3 3 3 2
11 12 12 11 10 10 10 10 10 10 11 11 11 10 9 8 8 8 8 7 8 8 8 7 6 6 6 6 7 6 6 5 5 4 5 5 7 7 6 4 4 4 3
12 13 13 12 12 13 12 11 11 11 11 11 11 9 9 9 9 9 8 8 8 7 7 8 8 7 6 9 11 8 6 6 6 5 5 5 6 8 8 8 8 7 5
11 13 14 14 14 13 13 13 12 11 11 11 10 10 10 10 10 10 9 9 8 7 7 8 8 8 8 10 11 11 6 6 6 6 5 4 4 5 5 6 6 8 10
10 11 12 12 11 11 11 11 11 11 12 11 11 11 11 11 10 9 10 9 7 7 7 8 8 7 8 11 11 11 7 6 6 6 6 6 5 5 5 4 5 6 7
8 9 10 10 10 11 12 11 12 12 12 12 12 12 12 11 11 11 10 8 7 7 7 6 8 8 8 11 12 10 5 5 7 7 7 7 7 7 7 5 6 7 7
4 6 7 8 9 10 11 12 13 13 14 14 13 12 12 12 12 12 10 7 7 8 8 7 8 9 8 10 12 12 6 6 6 5 6 9 10 9 8 6 6 8 8
2 4 6 7 8 9 11 12 12 14 13 11 10 10 11 11 11 9 8 7 7 7 7 8 7 8 9 9 12 13 7 7 6 6 6 6 9 11 10 8 7 9 8
2 4 5 5 5 8 10 11 12 11 8 9 10 10 10 10 9 8 8 8 8 8 7 7 6 6 7 8 10 14 13 10 7 7 5 5 7 9 9 7 8 10 7
2 3 5 5 4 6 8 10 9 7 8 8 9 9 9 8 7 9 9 7 7 7 7 6 7 6 5 6 10 11 13 13 8 5 6 5 6 6 6 8 8 6 5
3 4 5 5 4 4 5 5 5 6 8 9 8 7 8 7 6 6 7 7 7 7 7 7 7 5 4 4 4 5 6 8 7 5 4 5 5 5 5 5 4 4 4
5 5 5 5 4 3 3 3 4 7 7 7 6 6 6 7 6 6 6 7 7 8 8 7 6 6 6 7 8 6 5 5 5 4 2 2 2 3 3 3 4 4 3
6 6 6 6 5 4 4 3 3 6 7 6 5 5 4 5 5 5 3 3 4 6 7 6 6 5 6 5 7 8 7 6 6 4 2 3 3 3 4 4 4 4 4
Wind_Direction
185 173 172 167 163 163 164 163 157 156 152 149 153 149 149 141 136 157 149 144 140 137 130 124 115 112 112 119 124 109 88 60 52 82 52 28 33 45 35 22 24 16 341
174 178 176 174 174 176 173 170 167 162 163 162 156 144 136 136 136 134 132 140 141 142 138 131 130 123 110 104 109 115 106 61 41 106 97 51 21 18 26 27 35 31 27
185 180 174 178 180 183 182 178 172 167 163 157 135 121 104 92 103 120 130 143 142 138 132 137 132 127 123 124 120 124 125 117 53 53 131 136 170 352 7 23 32 31 39
185 182 179 181 184 186 181 176 174 168 162 157 153 153 153 157 167 156 143 134 134 135 135 135 132 130 124 124 126 114 119 127 122 71 51 87 134 133 73 2 10 21 33
184 185 187 185 182 180 179 178 174 171 162 162 163 159 152 144 131 128 129 126 120 131 138 137 133 130 124 120 109 105 105 113 130 131 115 86 70 76 126 98 355 8 13
183 183 183 180 179 175 174 168 169 171 165 165 168 166 158 149 145 145 147 142 126 120 134 137 135 134 129 125 119 111 106 100 104 105 110 127 125 122 120 127 73 357 337
179 178 177 180 179 174 170 165 167 168 167 167 169 170 167 162 162 160 159 154 149 153 162 148 145 140 136 131 124 114 108 108 111 113 104 105 114 133 129 122 123 45 336
179 181 181 179 177 170 167 166 167 167 167 168 169 168 165 164 163 163 161 165 167 165 161 154 149 144 141 137 130 119 119 115 115 115 114 103 99 120 135 137 137 106 4
181 181 177 175 174 172 171 172 170 168 170 170 165 165 166 164 163 162 158 160 158 156 155 155 149 147 145 143 140 132 128 122 116 121 118 106 95 96 104 123 142 145 155
177 177 176 176 175 171 167 168 168 170 168 168 170 171 171 168 163 159 162 164 163 155 153 154 152 150 150 149 142 137 138 130 127 130 121 111 108 102 105 114 121 135 151
177 177 176 173 168 163 165 169 166 160 165 169 168 165 168 165 161 165 169 167 163 160 163 163 160 160 160 158 153 155 154 148 147 146 145 145 139 129 131 127 126 133 147
174 173 170 165 164 165 169 173 170 168 170 167 163 164 162 161 164 169 170 166 166 168 167 164 164 170 170 169 170 173 172 170 172 174 167 175 165 158 158 156 163 173 182
167 165 166 170 172 171 173 174 172 171 166 162 163 162 164 168 172 173 168 166 167 166 166 166 173 178 178 180 186 183 182 185 187 186 187 192 180 193 194 190 191 194 191
175 173 174 177 177 176 174 173 174 168 165 164 167 171 175 176 175 171 169 171 170 170 174 177 182 183 183 186 187 186 187 191 198 201 203 202 200 208 205 207 210 202 197
182 184 183 181 178 176 176 176 174 170 169 169 176 181 177 172 168 170 174 173 175 181 179 178 184 186 187 193 189 189 192 196 206 215 218 220 221 220 212 212 210 200 206
191 189 188 184 183 183 181 179 178 175 171 178 184 178 172 174 178 179 177 177 181 180 177 185 189 193 202 201 196 190 193 199 206 219 228 236 236 236 231 228 220 203 206
192 190 191 192 189 186 182 183 182 174 177 184 183 178 178 183 185 183 179 184 186 182 186 193 194 201 211 206 203 200 193 203 210 216 224 236 236 229 232 240 241 231 228
194 193 193 194 191 184 181 179 172 174 181 185 185 182 183 186 183 181 187 190 185 187 193 198 200 205 218 213 210 206 201 210 218 220 221 228 242 239 229 240 253 255 248
198 195 192 190 184 183 178 171 175 179 184 190 191 188 187 186 184 190 194 191 185 193 197 197 200 207 221 215 211 198 197 216 227 227 224 225 237 243 231 232 252 267 269
192 187 178 172 177 182 171 173 181 184 193 196 196 190 186 187 191 196 194 187 188 198 198 206 207 210 219 216 209 197 200 218 231 236 234 230 232 241 231 224 237 258 269
189 167 161 170 182 173 167 178 185 197 200 192 187 185 188 192 194 191 187 182 188 192 199 209 213 213 219 219 211 201 203 215 226 235 239 235 229 236 237 228 229 243 257
128 151 161 172 164 159 166 178 193 198 184 177 180 185 187 191 192 186 187 184 185 192 202 210 221 222 221 219 216 209 211 212 219 234 239 237 232 237 242 239 240 248 254
103 134 149 144 137 156 168 185 195 173 164 173 184 187 185 187 184 185 188 184 188 197 205 208 221 227 221 221 221 216 216 216 219 238 241 243 242 244 248 247 250 250 242
79 104 114 121 126 148 168 185 171 162 164 175 180 175 174 177 177 182 187 190 193 198 202 207 216 219 213 217 213 209 211 213 219 235 241 240 240 240 248 258 255 242 236
63 86 103 108 107 112 123 125 146 153 161 168 168 165 167 172 177 184 189 193 201 198 197 205 203 202 215 220 202 190 196 198 202 184 203 225 225 238 252 261 263 256 245
67 76 79 80 80 84 81 75 114 141 148 153 155 158 160 163 171 176 175 179 180 183 191 194 187 199 205 195 183 189 195 189 167 159 203 229 238 248 258 264 268 260 254